Regional Weather Roundup
Issued by NWS

Home | Current Version | Previous Version | Text Only | Print | Product List | Glossary On
Versions: 1 2 3 4 5 6 7 8 9 10 11 12 13 14 15 16 17 18 19 20 21 22 23 24 25 26 27 28 29 30 31 32 33 34 35 36 37 38 39 40 41 42 43 44 45 46 47 48 49 50
000
ASUS43 KLMK 300210
RWRKY
KENTUCKY REGIONAL WEATHER ROUNDUP
NATIONAL WEATHER SERVICE LOUISVILLE KY
1000 PM EDT SAT AUG 29 2015

NOTE "FAIR" INDICATES FEW OR NO CLOUDS BELOW 12,000 FEET
WITH NO SIGNIFICANT WEATHER AND/OR OBSTRUCTIONS TO VISIBILITY.

KYZ001>023-026-027-061>063-070>075-300300-
WESTERN AND SOUTH CENTRAL KENTUCKY

CITY           SKY/WX    TMP DP  RH WIND       PRES   REMARKS
PADUCAH        CLOUDY    75  69  81 CALM      30.02R
HENDERSON      MOCLDY    73  68  83 CALM      30.02R
OWENSBORO      PTCLDY    77  70  79 SE6       30.05R
HOPKINSVILLE   PTCLDY    79  70  75 S8        30.05R
BOWLING GREEN  PTCLDY    76  68  76 S9        30.08R
GLASGOW        MOCLDY    74  68  81 CALM      30.10R
$$

KYZ024-025-028>034-038-045-046-053-300300-
NORTH CENTRAL KENTUCKY

CITY           SKY/WX    TMP DP  RH WIND       PRES   REMARKS
LOUISVILLE/SDF MOCLDY    77  66  68 S8        30.06R
LOUISVILLE/LOU PTCLDY    77  66  68 S5        30.07R
FORT KNOX      PTCLDY    73  67  82 S6        30.06R
$$

KYZ035>037-039>044-047>052-055>060-089>105-300300-
NORTHEAST KENTUCKY

CITY           SKY/WX    TMP DP  RH WIND       PRES   REMARKS
LEXINGTON      MOCLDY    76  67  73 SW3       30.10R
COVINGTON      MOCLDY    73  64  73 S5        30.08R
FRANKFORT      PTCLDY    75  65  70 S7        30.08R
$$

KYZ054-064>069-076>088-106>120-300300-
SOUTHEAST KENTUCKY

CITY           SKY/WX    TMP DP  RH WIND       PRES   REMARKS
JACKSON        PTCLDY    74  63  68 CALM      30.14R
LONDON         PTCLDY    74  65  73 CALM      30.13R
SOMERSET       MOCLDY    72  70  94 CALM      30.13R
MIDDLESBORO    PTCLDY    71  66  85 CALM      30.15R
MONTICELLO     MOCLDY    72  71  96 CALM      30.15R
$$




USA.gov is the U.S. government's official web portal to all federal, state and local government web resources and services.